Regional Weather Roundup
Issued by NWS Little Rock, AR

Home | Current Version | Previous Version | Graphics & Text | Print | Product List | Glossary On
Versions: 1 2 3 4 5 6 7 8 9 10 11 12 13 14 15 16 17 18 19 20 21 22 23 24 25 26 27 28 29 30 31 32 33 34 35 36 37 38 39 40 41 42 43 44 45 46 47 48 49 50
000
ASUS44 KLZK 280805
RWRLZK

WEATHER ROUNDUP FOR ARKANSAS
NATIONAL WEATHER SERVICE LITTLE ROCK AR
200 AM CST FRI NOV 28 2014

NOTE: "FAIR" INDICATES FEW OR NO CLOUDS BELOW 12,000 FEET WITH NO
SIGNIFICANT WEATHER AND/OR OBSTRUCTIONS TO VISIBILITY.

ARZ001-003-010-029-280900-
NORTHWEST ARKANSAS

CITY           SKY/WX    TMP DP  RH WIND       PRES   REMARKS
FAYETTEVILLE   CLEAR     34  26  72 CALM      30.27F
FORT SMITH     PTCLDY    33  28  81 NE5       30.32F WCI  29
HARRISON       CLEAR     32  25  75 E5        30.28F WCI  27
BENTONVILLE    CLEAR     34  23  64 CALM      30.28R
ROGERS         CLEAR     35  25  66 S8        30.28S WCI  29
SILOAM SPGS    CLEAR     37  23  56 S8        30.28R
HIGHFILL       CLEAR     32  25  75 S6        30.27F WCI  26
$$

ARZ004-005-016-280900-
NORTH CENTRAL ARKANSAS

CITY           SKY/WX    TMP DP  RH WIND       PRES   REMARKS
BATESVILLE     FAIR      34  27  75 S5        30.39S WCI  30
FLIPPIN        CLEAR     30  21  69 SE6       30.33F WCI  24
MTN HOME       CLEAR     31  24  75 SE5       30.32F WCI  26
$$

ARZ040-041-280900-
WEST CENTRAL ARKANSAS

CITY           SKY/WX    TMP DP  RH WIND       PRES   REMARKS
MENA           CLEAR     43  32  65 SE3       30.34F
MOUNT IDA      CLEAR     28  25  88 CALM      30.34F
$$

ARZ009-017-025-026-028-280900-
NORTHEAST ARKANSAS

CITY           SKY/WX    TMP DP  RH WIND       PRES   REMARKS
CORNING        FAIR      32  28  86 SE9       30.39F FOG     WCI  24
JONESBORO      CLEAR     29  28  96 CALM      30.42F
NEWPORT        PTCLDY    32  30  92 SE7       30.42F WCI  26
WALNUT RIDGE   CLEAR     30  27  86 SE10      30.38F WCI  21
BLYTHEVILLE    CLEAR     39  26  59 S7        30.44
$$

ARZ022-023-033-042-044-280900-
CENTRAL ARKANSAS

CITY           SKY/WX    TMP DP  RH WIND       PRES   REMARKS
LITTLE ROCK    MOCLDY    35  28  75 S3        30.41S
N LITTLE ROCK    N/A     36  31  83 SE2       30.41S
JACKSONVILLE   MOCLDY    28  26  91 CALM      30.40S
SEARCY         PTCLDY    28  27  96 CALM      30.43R
HOT SPRINGS    CLEAR     36  29  75 SE5       30.40S
RUSSELLVILLE   PTCLDY    34  28  79 VRB3      30.37S
CLINTON        FAIR      27  25  93 CALM      30.41S
$$

ARZ036-280900-
EAST ARKANSAS

CITY           SKY/WX    TMP DP  RH WIND       PRES   REMARKS
WEST MEMPHIS   FOG       29  27  92 S6        30.43F VSB 3/4 WCI  23
$$

ARZ050-053-066-070-073-280900-
SOUTHWEST ARKANSAS

CITY           SKY/WX    TMP DP  RH WIND       PRES   REMARKS
ARKADELPHIA    FAIR      30  30 100 CALM      30.42F FOG
CAMDEN         CLEAR     28  27  93 CALM      30.43S FOG
TEXARKANA      CLEAR     38  31  76 SE5       30.39S
EL DORADO      CLEAR     32  29  88 CALM      30.42S
DE QUEEN       CLEAR     30  30 100 CALM      30.37F FOG
$$

ARZ056-057-069-280900-
SOUTHEAST ARKANSAS

CITY           SKY/WX    TMP DP  RH WIND       PRES   REMARKS
PINE BLUFF     CLEAR     32  29  88 CALM      30.43S
STUTTGART      PTCLDY    36  30  80 SE7       30.43R
MONTICELLO     CLEAR     34  29  82 S5        30.43S WCI  30

$$




USA.gov is the U.S. government's official web portal to all federal, state and local government web resources and services.